"Pseudo-MPEC" for P11CgNd

Created 2022 Dec 16 15:22:12 UT using Find_Orb

Click here for an explanation of pseudo-MPECs

 
 Astrometry: 
     P11CgNd* C2022 11 26#0/e.*1Px9*Lw_[BcVAstrometryCGredacted;yclickhJ/pMadF51
     P11CgNd  C2022 11 26fVAQ@-9$rhereieMNforigx1PTTx-vpm*W1phSexplanation!.:F51
     P11CgNd  C2022 11 26:2f)5RV=Hy_F05T?gaojWbtiNDW[Feu:Q;xfG.^p.Cpr2Kk2aDD#F51

Station data:
(F51) Pan-STARRS 1, Haleakala  (N20.707234 W156.255910)  US/Hawaii.
   Observers J. Bulger, T. Lowe, A. Schultz, M. Willman. Measurers K.
   Chambers, S. Chastel, T. de Boer, L. Denneau, J. Fairlamb, H. Flewelling,
   M. Huber, C.-C. Lin, E. Magnier, Y. Ramanjooloo, R. Wainscoat, R. Weryk.
   1.8-m Ritchey-Chrétien + CCD.

Orbital elements:  P11CgNd
   Perihelion 2022 Nov 8.39667 +/- 39.1 TT =  9:31:12 (JD 2459891.89667)
Epoch 2022 Nov 27.0 TT = JDT 2459910.5   Earth MOID: 0.3131   Ju: 0.7042
M   3.35607093 +/- 24               Ma: 0.0778                   AutoNEOCP
n   0.18040163 +/- 0.249            Peri.   21.19087 +/- 90
a   3.10200435 +/- 2.86             Node    34.95519 +/- 59
e   0.5840233 +/- 0.25              Incl.   16.42956 +/- 8
P   5.46                   H 21.81  G  0.15   U 11.8  SR
q 1.29036127 +/- 0.351    Q 4.91364744 +/- 46.4           (J2000 ecliptic)
From 3 observations 2022 Nov. 26 (48.7 min); mean residual 0".05
Residuals in arcseconds: 
221126 F51  .03-  .01-    221126 F51  .08+  .04+    221126 F51  .05-  .03-    

Ephemerides (geocentric):
Date (UTC) HH   RA             Dec           delta  r     elong  mag " sig PA
---- --------  ------------   ------------  ------ ------ -----  --- --------
2022 12 16 15  06 10 07.910   +64 50 47.62  .46153 1.3629 138.1 22.1  56d  58
2022 12 16 16  06 10 08.210   +64 51 13.26  .46171 1.3631 138.1 22.1  56d  58
2022 12 16 17  06 10 08.507   +64 51 38.77  .46189 1.3632 138.1 22.1  56d  58
2022 12 16 18  06 10 08.800   +64 52 04.17  .46208 1.3634 138.1 22.1  56d  58
2022 12 16 19  06 10 09.089   +64 52 29.45  .46226 1.3635 138.1 22.1  56d  58
2022 12 16 20  06 10 09.375   +64 52 54.61  .46244 1.3637 138.1 22.1  56d  58
2022 12 16 21  06 10 09.658   +64 53 19.66  .46263 1.3638 138.1 22.1  56d  58
2022 12 16 22  06 10 09.937   +64 53 44.59  .46281 1.3640 138.1 22.1  56d  58
2022 12 16 23  06 10 10.213   +64 54 09.41  .46299 1.3642 138.1 22.1  56d  58
2022 12 17 00  06 10 10.485   +64 54 34.11  .46318 1.3643 138.1 22.1  56d  58
2022 12 17 01  06 10 10.754   +64 54 58.69  .46336 1.3645 138.1 22.1  56d  58
2022 12 17 02  06 10 11.020   +64 55 23.15  .46354 1.3646 138.1 22.1  56d  58
2022 12 17 03  06 10 11.282   +64 55 47.51  .46373 1.3648 138.1 22.1  56d  58
2022 12 17 04  06 10 11.541   +64 56 11.74  .46391 1.3649 138.1 22.1  57d  58
2022 12 17 05  06 10 11.797   +64 56 35.86  .46410 1.3651 138.1 22.1  57d  58
2022 12 17 06  06 10 12.050   +64 56 59.86  .46428 1.3652 138.1 22.1  57d  58
2022 12 17 07  06 10 12.299   +64 57 23.75  .46447 1.3654 138.1 22.1  57d  58
2022 12 17 08  06 10 12.545   +64 57 47.52  .46465 1.3655 138.1 22.1  57d  58
2022 12 17 09  06 10 12.788   +64 58 11.17  .46484 1.3657 138.1 22.1  57d  58
2022 12 17 10  06 10 13.027   +64 58 34.71  .46502 1.3658 138.1 22.1  57d  58
2022 12 17 11  06 10 13.264   +64 58 58.14  .46521 1.3660 138.1 22.1  57d  58
2022 12 17 12  06 10 13.497   +64 59 21.45  .46539 1.3661 138.1 22.1  57d  58
2022 12 17 13  06 10 13.727   +64 59 44.64  .46558 1.3663 138.1 22.1  57d  58
2022 12 17 14  06 10 13.954   +65 00 07.72  .46576 1.3665 138.0 22.1  57d  58
2022 12 17 15  06 10 14.178   +65 00 30.68  .46595 1.3666 138.0 22.1  57d  58
2022 12 17 16  06 10 14.399   +65 00 53.53  .46614 1.3668 138.0 22.1  57d  58
2022 12 17 17  06 10 14.616   +65 01 16.26  .46632 1.3669 138.0 22.1  57d  58
2022 12 17 18  06 10 14.831   +65 01 38.88  .46651 1.3671 138.0 22.1  57d  58
2022 12 17 19  06 10 15.042   +65 02 01.38  .46670 1.3672 138.0 22.2  57d  58
2022 12 17 20  06 10 15.251   +65 02 23.77  .46688 1.3674 138.0 22.2  57d  58
2022 12 17 21  06 10 15.456   +65 02 46.04  .46707 1.3675 138.0 22.2  57d  58
2022 12 17 22  06 10 15.659   +65 03 08.20  .46726 1.3677 138.0 22.2  57d  58
2022 12 17 23  06 10 15.858   +65 03 30.24  .46745 1.3679 138.0 22.2  57d  58
2022 12 18 00  06 10 16.055   +65 03 52.17  .46763 1.3680 138.0 22.2  57d  58
2022 12 18 01  06 10 16.248   +65 04 13.99  .46782 1.3682 138.0 22.2  57d  58
2022 12 18 02  06 10 16.439   +65 04 35.69  .46801 1.3683 138.0 22.2  57d  58
2022 12 18 03  06 10 16.627   +65 04 57.27  .46820 1.3685 138.0 22.2  57d  58
2022 12 18 04  06 10 16.811   +65 05 18.74  .46838 1.3686 138.0 22.2  57d  58
2022 12 18 05  06 10 16.993   +65 05 40.10  .46857 1.3688 138.0 22.2  57d  58
2022 12 18 06  06 10 17.172   +65 06 01.34  .46876 1.3689 138.0 22.2  57d  58
2022 12 18 07  06 10 17.349   +65 06 22.47  .46895 1.3691 138.0 22.2  57d  59
2022 12 18 08  06 10 17.522   +65 06 43.49  .46914 1.3693 138.0 22.2  57d  59
2022 12 18 09  06 10 17.692   +65 07 04.39  .46933 1.3694 138.0 22.2  57d  59
2022 12 18 10  06 10 17.860   +65 07 25.17  .46952 1.3696 138.0 22.2  57d  59
2022 12 18 11  06 10 18.025   +65 07 45.85  .46971 1.3697 138.0 22.2  57d  59
2022 12 18 12  06 10 18.188   +65 08 06.41  .46989 1.3699 138.0 22.2  57d  59
2022 12 18 13  06 10 18.347   +65 08 26.85  .47008 1.3701 138.0 22.2  57d  59
2022 12 18 14  06 10 18.504   +65 08 47.19  .47027 1.3702 138.0 22.2  57d  59